Regional Weather Roundup
Issued by NWS

Home | Current Version | Previous Version | Text Only | Print | Product List | Glossary On
Versions: 1 2 3 4 5 6 7 8 9 10 11 12 13 14 15 16 17 18 19 20 21 22 23 24 25 26 27 28 29 30 31 32 33 34 35 36 37 38 39 40 41 42 43 44 45 46 47 48 49 50
000
ASUS43 KLMK 011110
RWRKY
KENTUCKY REGIONAL WEATHER ROUNDUP
NATIONAL WEATHER SERVICE LOUISVILLE KY
700 AM EDT SAT AUG 01 2015

NOTE "FAIR" INDICATES FEW OR NO CLOUDS BELOW 12,000 FEET
WITH NO SIGNIFICANT WEATHER AND/OR OBSTRUCTIONS TO VISIBILITY.

KYZ001>023-026-027-061>063-070>075-011200-
WESTERN AND SOUTH CENTRAL KENTUCKY

CITY           SKY/WX    TMP DP  RH WIND       PRES   REMARKS
PADUCAH        CLEAR     68  65  90 CALM      30.01R FOG
HENDERSON      CLEAR     66  64  94 CALM      30.00R
OWENSBORO      CLEAR     71  69  93 NW3       30.01R
HOPKINSVILLE   CLEAR     68  66  93 SW2       30.01R
BOWLING GREEN  CLEAR     67  64  90 CALM      30.02R
GLASGOW        CLEAR    N/A N/A N/A CALM      30.02R HAZE
$$

KYZ024-025-028>034-038-045-046-053-011200-
NORTH CENTRAL KENTUCKY

CITY           SKY/WX    TMP DP  RH WIND       PRES   REMARKS
LOUISVILLE/SDF PTCLDY    72  65  78 SW3       29.99R
LOUISVILLE/LOU CLEAR     68  64  87 CALM      30.00R
FORT KNOX      CLEAR     65  64  95 W1        30.00R
$$

KYZ035>037-039>044-047>052-055>060-089>105-011200-
NORTHEAST KENTUCKY

CITY           SKY/WX    TMP DP  RH WIND       PRES   REMARKS
LEXINGTON      CLEAR     64  61  90 S3        30.01R
COVINGTON      PTCLDY    61  60  97 CALM      29.99R
FRANKFORT      CLEAR     64  60  87 CALM      29.99S
$$

KYZ054-064>069-076>088-106>120-011200-
SOUTHEAST KENTUCKY

CITY           SKY/WX    TMP DP  RH WIND       PRES   REMARKS
JACKSON        CLEAR     63  60  90 CALM      30.03R
LONDON         CLEAR     62  57  83 CALM      30.04R
SOMERSET       PTCLDY    61  61 100 CALM      30.05R
MIDDLESBORO    FOG       60  60 100 CALM      30.06S VSB<1/4
MONTICELLO     SUNNY     60  60 100 CALM      30.06R FOG
$$



USA.gov is the U.S. government's official web portal to all federal, state and local government web resources and services.